When you browse on this site, cookies collect data to enhance your experience and personalize the content and advertising you see.
Visit our Privacy Policy to learn more. By continuing to use the site, you agree to this use of cookies and data.
  • Em Portugal
  • Lista de países
  • Para 7 dias
  • Temperatura da água
  • Mapas de satélite
  • Mapa do tempo
  • Widgets de tempo
  • user-avatar
    Iniciar Sessão

    Previsão horária em Kielpin

    Hoje, 17 Julho, Quarta-feira

    Tempo Temperatura Precipitação Vento Pressão Humidade
    00:00 +12°C° 0 mm 4 m/s 743 mmHg 92%
    01:00 +12°C° 0 mm 4 m/s 743 mmHg 91%
    02:00 +12°C° 0 mm 4 m/s 743 mmHg 92%
    03:00 +11°C° 0 mm 3 m/s 743 mmHg 94%
    04:00 +11°C° 0 mm 3 m/s 743 mmHg 95%
    05:00 +12°C° 0 mm 3 m/s 743 mmHg 89%
    06:00 +13°C° 0 mm 4 m/s 743 mmHg 82%
    07:00 +14°C° 0 mm 4 m/s 743 mmHg 76%
    08:00 +17°C° 0 mm 4 m/s 744 mmHg 70%
    09:00 +18°C° 0 mm 4 m/s 744 mmHg 64%
    10:00 +19°C° 0 mm 4 m/s 744 mmHg 59%
    11:00 +19°C° 0 mm 4 m/s 744 mmHg 56%
    12:00 +20°C° 0 mm 4 m/s 745 mmHg 54%
    13:00 +21°C° 0 mm 4 m/s 745 mmHg 51%
    14:00 +21°C° 0 mm 4 m/s 745 mmHg 51%
    15:00 +21°C° 0 mm 4 m/s 745 mmHg 51%
    16:00 +20°C° 0 mm 4 m/s 745 mmHg 51%
    17:00 +19°C° 0 mm 3 m/s 745 mmHg 57%
    18:00 +18°C° 0 mm 3 m/s 745 mmHg 62%
    19:00 +17°C° 0 mm 3 m/s 745 mmHg 67%
    20:00 +15°C° 0 mm 2 m/s 745 mmHg 74%
    21:00 +13°C° 0 mm 2 m/s 745 mmHg 81%
    22:00 +10°C° 0 mm 2 m/s 745 mmHg 88%
    23:00 +11°C° 0 mm 1 m/s 745 mmHg 90%

    Amanhã, 18 Julho, Quinta-feira

    Tempo Temperatura Precipitação Vento Pressão Humidade
    00:00 +10°C° 0 mm 1 m/s 745 mmHg 92%
    01:00 +10°C° 0 mm 1 m/s 745 mmHg 93%
    02:00 +10°C° 0 mm 1 m/s 745 mmHg 93%
    03:00 +9°C° 0 mm 1 m/s 745 mmHg 93%
    04:00 +9°C° 0 mm 1 m/s 745 mmHg 92%
    05:00 +11°C° 0 mm 0 m/s 745 mmHg 84%
    06:00 +13°C° 0 mm 0 m/s 745 mmHg 75%
    07:00 +15°C° 0 mm 0 m/s 746 mmHg 66%
    08:00 +17°C° 0 mm 0 m/s 746 mmHg 61%
    09:00 +19°C° 0 mm 0 m/s 746 mmHg 56%
    10:00 +21°C° 0 mm 0 m/s 746 mmHg 51%
    11:00 +21°C° 0.1 mm 0 m/s 746 mmHg 50%
    12:00 +22°C° 0.1 mm 0 m/s 746 mmHg 49%
    13:00 +22°C° 0.1 mm 0 m/s 746 mmHg 48%
    14:00 +24°C° 0.1 mm 1 m/s 746 mmHg 51%
    15:00 +23°C° 0.1 mm 1 m/s 745 mmHg 54%
    16:00 +23°C° 0.1 mm 2 m/s 745 mmHg 57%
    17:00 +21°C° 0.1 mm 2 m/s 745 mmHg 64%
    18:00 +20°C° 0.1 mm 2 m/s 745 mmHg 71%
    19:00 +20°C° 0.1 mm 1 m/s 745 mmHg 78%
    20:00 +19°C° 0 mm 1 m/s 745 mmHg 82%
    21:00 +16°C° 0 mm 1 m/s 746 mmHg 87%
    22:00 +15°C° 0 mm 1 m/s 746 mmHg 91%
    23:00 +14°C° 0 mm 1 m/s 746 mmHg 92%

    Depois de amanhã, 19 Julho, Sexta-feira

    Tempo Temperatura Precipitação Vento Pressão Humidade
    00:00 +14°C° 0 mm 1 m/s 746 mmHg 92%
    01:00 +13°C° 0 mm 1 m/s 745 mmHg 93%
    02:00 +13°C° 0 mm 1 m/s 745 mmHg 92%
    03:00 +13°C° 0 mm 1 m/s 745 mmHg 92%
    04:00 +12°C° 0 mm 0 m/s 745 mmHg 91%
    05:00 +15°C° 0 mm 1 m/s 745 mmHg 84%
    06:00 +18°C° 0 mm 1 m/s 746 mmHg 77%
    07:00 +20°C° 0 mm 1 m/s 746 mmHg 70%
    08:00 +21°C° 0 mm 1 m/s 746 mmHg 63%
    09:00 +22°C° 0 mm 1 m/s 746 mmHg 56%
    10:00 +24°C° 0 mm 2 m/s 746 mmHg 48%
    11:00 +24°C° 0 mm 2 m/s 746 mmHg 46%
    12:00 +25°C° 0 mm 2 m/s 746 mmHg 44%
    13:00 +26°C° 0 mm 2 m/s 746 mmHg 42%
    14:00 +26°C° 0 mm 1 m/s 746 mmHg 42%
    15:00 +26°C° 0 mm 1 m/s 746 mmHg 43%
    16:00 +26°C° 0 mm 1 m/s 745 mmHg 43%
    17:00 +24°C° 0 mm 1 m/s 745 mmHg 49%
    18:00 +23°C° 0 mm 1 m/s 745 mmHg 54%
    19:00 +20°C° 0 mm 0 m/s 745 mmHg 60%
    20:00 +19°C° 0 mm 0 m/s 746 mmHg 63%
    21:00 +20°C° 0 mm 1 m/s 746 mmHg 67%
    22:00 +18°C° 0 mm 1 m/s 746 mmHg 70%
    23:00 +18°C° 0 mm 1 m/s 746 mmHg 70%

    20 Julho, Sábado

    Tempo Temperatura Precipitação Vento Pressão Humidade
    00:00 +18°C° 0 mm 1 m/s 746 mmHg 70%
    01:00 +18°C° 0 mm 1 m/s 746 mmHg 70%
    02:00 +18°C° 0 mm 1 m/s 746 mmHg 71%
    03:00 +18°C° 0 mm 1 m/s 746 mmHg 72%
    04:00 +16°C° 0 mm 1 m/s 746 mmHg 73%
    05:00 +19°C° 0 mm 1 m/s 746 mmHg 69%
    06:00 +20°C° 0 mm 1 m/s 746 mmHg 66%
    07:00 +21°C° 0 mm 1 m/s 747 mmHg 62%
    08:00 +23°C° 0 mm 2 m/s 747 mmHg 57%
    09:00 +25°C° 0 mm 2 m/s 747 mmHg 52%
    10:00 +26°C° 0 mm 2 m/s 747 mmHg 47%
    11:00 +27°C° 0 mm 2 m/s 747 mmHg 46%
    12:00 +28°C° 0 mm 2 m/s 747 mmHg 45%
    13:00 +28°C° 0 mm 3 m/s 747 mmHg 43%
    14:00 +28°C° 0 mm 2 m/s 747 mmHg 45%
    15:00 +28°C° 0 mm 2 m/s 747 mmHg 46%
    16:00 +28°C° 0 mm 2 m/s 747 mmHg 47%
    17:00 +27°C° 0 mm 2 m/s 747 mmHg 52%
    18:00 +25°C° 0 mm 2 m/s 747 mmHg 58%
    19:00 +24°C° 0 mm 2 m/s 746 mmHg 63%
    20:00 +23°C° 0 mm 2 m/s 746 mmHg 65%
    21:00 +21°C° 0 mm 2 m/s 746 mmHg 67%
    22:00 +20°C° 0 mm 2 m/s 747 mmHg 69%
    23:00 +19°C° 0.1 mm 3 m/s 746 mmHg 73%

    21 Julho, Domingo

    Tempo Temperatura Precipitação Vento Pressão Humidade
    00:00 +19°C° 0.1 mm 3 m/s 746 mmHg 76%
    01:00 +18°C° 0.1 mm 3 m/s 746 mmHg 80%
    02:00 +18°C° 0.6 mm 3 m/s 746 mmHg 83%
    03:00 +17°C° 0.6 mm 2 m/s 746 mmHg 87%
    04:00 +17°C° 0.6 mm 2 m/s 746 mmHg 90%
    05:00 +17°C° 0.6 mm 2 m/s 746 mmHg 90%
    06:00 +18°C° 0.6 mm 3 m/s 746 mmHg 90%
    07:00 +18°C° 0.6 mm 3 m/s 746 mmHg 90%
    08:00 +19°C° 0.7 mm 3 m/s 746 mmHg 89%
    09:00 +20°C° 0.7 mm 3 m/s 746 mmHg 88%
    10:00 +21°C° 0.7 mm 2 m/s 747 mmHg 86%
    11:00 +23°C° 0.8 mm 2 m/s 747 mmHg 84%
    12:00 +23°C° 0.8 mm 2 m/s 746 mmHg 81%
    13:00 +24°C° 0.8 mm 2 m/s 746 mmHg 78%
    14:00 +25°C° 1.3 mm 2 m/s 746 mmHg 74%
    15:00 +26°C° 1.3 mm 3 m/s 747 mmHg 70%
    16:00 +26°C° 1.3 mm 3 m/s 747 mmHg 65%
    17:00 +25°C° 0.2 mm 3 m/s 747 mmHg 71%
    18:00 +24°C° 0.2 mm 2 m/s 747 mmHg 76%
    19:00 +23°C° 0.2 mm 2 m/s 747 mmHg 82%
    20:00 +20°C° 0 mm 2 m/s 747 mmHg 86%
    21:00 +19°C° 0 mm 2 m/s 748 mmHg 91%
    22:00 +18°C° 0 mm 3 m/s 748 mmHg 95%
    23:00 +17°C° 0 mm 3 m/s 748 mmHg 95%

    22 Julho, Segunda-feira

    Tempo Temperatura Precipitação Vento Pressão Humidade
    00:00 +17°C° 0 mm 3 m/s 748 mmHg 95%
    01:00 +16°C° 0 mm 3 m/s 748 mmHg 94%
    02:00 +16°C° 0 mm 2 m/s 749 mmHg 95%
    03:00 +16°C° 0 mm 2 m/s 749 mmHg 96%
    04:00 +15°C° 0 mm 2 m/s 749 mmHg 98%
    05:00 +17°C° 0 mm 2 m/s 749 mmHg 93%
    06:00 +18°C° 0 mm 3 m/s 750 mmHg 89%
    07:00 +19°C° 0 mm 3 m/s 750 mmHg 85%
    08:00 +21°C° 0.1 mm 3 m/s 750 mmHg 79%
    09:00 +22°C° 0.1 mm 3 m/s 751 mmHg 73%
    10:00 +25°C° 0.1 mm 3 m/s 751 mmHg 67%
    11:00 +25°C° 0.2 mm 3 m/s 751 mmHg 63%
    12:00 +26°C° 0.2 mm 4 m/s 751 mmHg 59%
    13:00 +27°C° 0.2 mm 4 m/s 751 mmHg 55%
    14:00 +27°C° 0.2 mm 4 m/s 751 mmHg 57%
    15:00 +26°C° 0.2 mm 5 m/s 751 mmHg 59%
    16:00 +26°C° 0.2 mm 5 m/s 751 mmHg 61%
    17:00 +23°C° 0 mm 4 m/s 751 mmHg 66%
    18:00 +22°C° 0 mm 4 m/s 751 mmHg 71%
    19:00 +21°C° 0 mm 3 m/s 751 mmHg 77%
    20:00 +19°C° 0 mm 3 m/s 751 mmHg 83%
    21:00 +18°C° 0 mm 2 m/s 751 mmHg 90%
    22:00 +16°C° 0 mm 2 m/s 751 mmHg 96%
    23:00 +16°C° 0 mm 2 m/s 751 mmHg 96%
    Mostrar mais